Location: DARK SKY Beskydy - Park tmavé oblohy, www.darkskybeskydy.cz
(49.4926°N, 18.5016°E)
Time: 02:10:56
(UTC+02:00)

A-11 Canister half - Pass Details

Date: 22 February 2024
Orbit: 1513 x 1686 km, 47.2° (Epoch: 24 April)

Event Time Altitude Azimuth Distance (km) Brightness Sun altitude
Rises 00:32:59 0° 187° (S) 4,926 - -50.4°
Reaches altitude 10° 00:37:14 10° 172° (S) 3,940 - -50.2°
Maximum altitude 00:44:02 21° 129° (SE) 3,154 - -49.9°
Exits shadow 00:49:18 13° 93° (E) 3,633 11.0 -49.6°
Drops below altitude 10° 00:50:45 10° 86° (E) 3,905 11.2 -49.5°
Sets 00:54:53 0° 72° (ENE) 4,871 12.0 -49.3°
